Flag for U.S.A. Weather past 2 weeks in Grand Prairie, Texas, U.S.A.

Now
99 °F

Extremely hot.


Feels Like: 100 °F
Forecast: 80 / 99 °F
Wind: 7 mph from Southwest

Location: Grand Prairie Municipal Airport

Current Time: Jul 29, 2015 at 3:46:55 PM

Latest Report: Jul 29, 2015 at 2:50 PM


Visibility: N/A

Pressure: 30.03 "Hg

Humidity: 31%

Dew point: 63 °F

Location of Grand PrairieLocation

Historic Weather in Grand Prairie — Graph

°F

Grand Prairie temperature yesterday

Maximum temperature yesterday: 102 °F (at 9:50 AM)
Minimum temperature yesterday: 80 °F (at 6:35 AM)
Average temperature yesterday: 88 °F

Past Weeks' High & Low Weather Summary

 TemperatureHumidityPressure
High102 °F (Jul 28, 9:50 AM)86% (Jul 18, 6:35 AM)30.07 "Hg (Jul 18, 6:35 AM)
Low75 °F (Jul 15, 6:50 AM)30% (Jul 25, 2:50 PM)29.81 "Hg (Jul 21, 6:50 PM)
Average86 °F59%29.93 "Hg
* Reported Jul 14 2:50 PM — Jul 29 2:50 PM, Grand Prairie, Weather by CustomWeather, © 2015

Note: Actual official high and low records may vary slightly from our data, if they occured in-between our weather recording intervals... More about our weather records

Advertising

Grand Prairie weather history for previous 24 hours

 ConditionsComfort  
Time TempWeatherWind HumidityBarometerVisibility
2:50 PM
Wed, Jul 29
99 °FExtremely hot.7 mph31%30.03 "HgN/A
1:50 PM97 °FSunny.7 mph37%30.04 "Hg10 mi
12:50 PM93 °FSunny.7 mph47%30.05 "Hg10 mi
11:50 AM91 °FSunny.7 mph49%30.06 "Hg10 mi
10:50 AM88 °FSunny.6 mph59%30.07 "Hg10 mi
9:50 AM84 °FSunny.9 mph66%30.06 "Hg10 mi
8:50 AM82 °FSunny.7 mph70%30.06 "Hg10 mi
7:50 AM81 °FSunny.9 mph74%30.04 "Hg10 mi
6:50 AM79 °FClear.7 mph74%30.02 "Hg10 mi
6:35 AM79 °FClear.6 mph75%30.02 "Hg10 mi
6:15 AM79 °FClear.6 mph74%30.02 "Hg10 mi
5:55 AM80 °FClear.6 mph72%30.01 "Hg10 mi
5:15 AM82 °FClear.7 mph69%30.00 "Hg10 mi
4:55 AM82 °FClear.6 mph70%30.00 "Hg10 mi
4:35 AM82 °FClear.7 mph69%29.99 "Hg10 mi
4:15 AM83 °FClear.6 mph67%29.99 "Hg10 mi
3:55 AM83 °FClear.8 mph66%29.99 "Hg10 mi
3:15 AM84 °FClear.6 mph63%29.99 "Hg10 mi
2:55 AM84 °FClear.5 mph61%29.99 "Hg10 mi
2:35 AM85 °FClear.8 mph59%29.99 "Hg10 mi
2:15 AM86 °FClear.9 mph57%29.99 "Hg10 mi
1:55 AM87 °FClear.7 mph55%29.99 "Hg10 mi
1:35 AM87 °FClear.6 mph52%29.99 "Hg10 mi
1:15 AM86 °FClear.5 mph53%29.99 "Hg10 mi
12:55 AM86 °FClear.6 mph53%29.98 "Hg10 mi
12:35 AM87 °FClear.5 mph52%29.98 "Hg10 mi
12:15 AM87 °FClear.8 mph51%29.98 "Hg10 mi
11:55 PM
Tue, Jul 28
86 °FClear.5 mph51%29.97 "Hg10 mi
11:35 PM87 °FClear.7 mph50%29.97 "Hg10 mi
10:55 PM87 °FClear.6 mph50%29.95 "Hg10 mi
9:55 PM89 °FClear.5 mph45%29.93 "Hg10 mi
9:35 PM90 °FClear.5 mph44%29.92 "Hg10 mi
9:15 PM90 °FSunny.6 mph43%29.92 "Hg10 mi
8:55 PM91 °FSunny.6 mph41%29.91 "Hg10 mi
8:15 PM93 °FSunny.7 mph38%29.91 "Hg10 mi
7:50 PM93 °FSunny.9 mph39%29.91 "Hg10 mi
6:50 PM97 °FSunny.12 mph34%29.91 "Hg10 mi
5:50 PM99 °FSunny.10 mph33%29.92 "Hg10 mi
4:50 PM99 °FSunny.9 mph35%29.93 "Hg10 mi
3:50 PM99 °FSunny.9 mph35%29.94 "Hg10 mi
Weather by CustomWeather, © 2015

See weather overviewHow to use our weather pages